EW8182 Weather Reports


time (UTC)temp
F
wind
direction
speed
knots
gust
knots
rain 1hr
in
rain 24hr
in
rain mn
in
humidity
%
barometer
mb
20260508231151 61 246 0.0 0.0 0.00 0.00 0.00 69 1008.7
20260508230653 62 247 0.0 0.0 0.00 0.00 0.00 69 1008.7
20260508230649 62 247 0.0 0.0 0.00 0.00 0.00 69 1008.8
20260508225649 62 247 0.0 0.0 0.00 0.00 0.00 67 1008.7
20260508225149 62 247 0.0 0.0 0.00 0.00 0.00 62 1008.6
20260508224648 63 247 0.0 0.0 0.00 0.00 0.00 66 1008.5
20260508224148 63 246 0.0 0.0 0.00 0.00 0.00 60 1008.6
20260508223648 63 247 0.0 0.0 0.00 0.00 0.00 56 1008.6
20260508223153 64 246 0.0 0.0 0.00 0.00 0.00 56 1008.6
20260508223149 64 246 0.0 0.0 0.00 0.00 0.00 55 1008.7
20260508222148 64 247 0.0 0.0 0.00 0.00 0.00 57 1008.7
20260508221648 64 247 0.0 0.9 0.00 0.00 0.00 57 1008.7
20260508221148 64 247 0.0 0.9 0.00 0.00 0.00 53 1008.7
20260508220648 64 246 0.0 1.7 0.00 0.00 0.00 53 1008.7
20260508220146 64 246 0.9 2.6 0.00 0.00 0.00 53 1008.7
20260508215646 64 249 0.9 2.6 0.00 0.00 0.00 53 1008.7
20260508215147 65 242 0.9 3.5 0.00 0.00 0.00 52 1008.6
20260508214646 65 243 1.7 3.5 0.00 0.00 0.00 52 1008.6
20260508214150 65 221 1.7 4.3 0.00 0.00 0.00 51 1008.5
20260508214146 65 237 1.7 4.3 0.00 0.00 0.00 52 1008.6
20260508213145 65 245 1.7 3.5 0.00 0.00 0.00 50 1008.7
20260508212651 65 240 1.7 3.5 0.00 0.00 0.00 50 1008.7
20260508212646 65 232 1.7 3.5 0.00 0.00 0.00 50 1008.8
20260508211649 65 233 2.6 5.2 0.00 0.00 0.00 49 1008.7
20260508211645 65 238 2.6 7.0 0.00 0.00 0.00 49 1008.8
20260508210644 65 232 3.5 7.0 0.00 0.00 0.00 49 1008.9
20260508210148 66 228 3.5 7.8 0.00 0.00 0.00 48 1009.1
20260508210144 65 232 3.5 7.8 0.00 0.00 0.00 49 1009.0
20260508205144 66 236 4.3 10.4 0.00 0.00 0.00 49 1009.2
20260508204644 66 228 4.3 10.4 0.00 0.00 0.00 47 1009.2
20260508204143 66 238 4.3 8.7 0.00 0.00 0.00 48 1009.2
20260508203644 66 236 4.3 8.7 0.00 0.00 0.00 47 1009.4
20260508203145 66 230 5.2 10.4 0.00 0.00 0.00 46 1009.4
20260508202643 66 223 6.1 10.4 0.00 0.00 0.00 45 1009.4
20260508202148 66 214 7.8 12.2 0.00 0.00 0.00 45 1009.4
20260508202143 66 238 6.1 12.2 0.00 0.00 0.00 44 1009.5
20260508201143 66 231 7.8 12.2 0.00 0.00 0.00 45 1009.5
20260508200646 66 214 7.8 14.8 0.00 0.00 0.00 44 1009.5
20260508200642 66 232 8.7 14.8 0.00 0.00 0.00 44 1009.4
20260508195648 67 227 7.8 15.6 0.00 0.00 0.00 43 1009.6
20260508195641 66 246 7.0 13.9 0.00 0.00 0.00 45 1009.6
20260508195144 67 243 8.7 14.8 0.00 0.00 0.00 44 1009.7
20260508194641 67 234 8.7 15.6 0.00 0.00 0.00 43 1009.6
20260508193641 67 241 6.1 13.9 0.00 0.00 0.00 45 1009.7
20260508193141 67 241 7.0 13.9 0.00 0.00 0.00 44 1009.7
20260508192639 67 242 8.7 13.9 0.00 0.00 0.00 44 1009.8
20260508192145 69 230 11.3 19.1 0.00 0.00 0.00 42 1009.9
20260508192140 68 231 9.6 16.5 0.00 0.00 0.00 43 1009.9
20260508191144 70 195 9.6 20.0 0.00 0.00 0.00 42 1010.0
20260508191140 70 244 12.2 20.0 0.00 0.00 0.00 41 1010.0
20260508190145 68 244 8.7 14.8 0.00 0.00 0.00 44 1010.2
20260508190141 69 212 8.7 16.5 0.00 0.00 0.00 43 1010.1
20260508185141 68 203 6.1 14.8 0.00 0.00 0.00 44 1010.5
20260508184640 69 236 6.1 14.8 0.00 0.00 0.00 43 1010.5
20260508184140 69 265 7.8 16.5 0.00 0.00 0.00 44 1010.5
20260508183640 69 241 7.8 16.5 0.00 0.00 0.00 45 1010.5
20260508183139 69 240 6.1 15.6 0.00 0.00 0.00 45 1010.6
20260508182639 67 278 6.1 13.0 0.00 0.00 0.00 50 1010.7
20260508182140 67 242 6.1 13.0 0.00 0.00 0.00 47 1010.8
20260508181640 67 237 7.0 14.8 0.00 0.00 0.00 48 1010.9
20260508181139 66 227 6.1 14.8 0.00 0.00 0.00 48 1010.9
20260508180644 66 245 7.0 13.0 0.00 0.00 0.00 48 1011.1
20260508180140 66 237 7.8 14.8 0.00 0.00 0.00 47 1011.2
20260508175638 66 242 7.8 14.8 0.00 0.00 0.00 48 1011.2
20260508175138 65 243 7.8 13.9 0.00 0.00 0.00 49 1011.3
20260508174643 65 207 7.0 13.0 0.00 0.00 0.00 49 1011.3
20260508174638 65 217 7.8 13.9 0.00 0.00 0.00 47 1011.3
20260508173637 65 257 7.8 14.8 0.00 0.00 0.00 50 1011.4
20260508173138 65 232 8.7 14.8 0.00 0.00 0.00 49 1011.6
20260508172637 65 241 9.6 18.2 0.00 0.00 0.00 50 1011.8
20260508172137 65 240 10.4 18.2 0.00 0.00 0.00 48 1011.8
20260508171638 66 223 10.4 19.1 0.00 0.00 0.00 47 1011.7
20260508171137 67 217 9.6 19.1 0.00 0.00 0.00 48 1012.0
20260508170635 67 225 7.8 16.5 0.00 0.00 0.00 48 1012.0
20260508170135 67 244 7.8 14.8 0.00 0.00 0.00 52 1012.1
20260508165635 67 227 8.7 14.8 0.00 0.00 0.00 49 1012.2
20260508165140 67 204 7.0 13.9 0.00 0.00 0.00 51 1012.4
20260508165136 67 213 7.8 13.9 0.00 0.00 0.00 51 1012.3
20260508164136 66 234 7.8 13.9 0.00 0.00 0.00 51 1012.4
20260508163636 66 232 7.8 13.9 0.00 0.00 0.00 51 1012.4
20260508163135 66 205 7.8 14.8 0.00 0.00 0.00 52 1012.5
20260508162635 65 246 8.7 14.8 0.00 0.00 0.00 52 1012.5
20260508162134 65 240 9.6 17.4 0.00 0.00 0.00 53 1012.6
20260508161634 65 242 10.4 17.4 0.00 0.00 0.00 49 1012.6
20260508161133 66 225 8.7 14.8 0.00 0.00 0.00 50 1012.7
20260508160633 65 227 7.8 13.9 0.00 0.00 0.00 53 1012.8
20260508160132 65 236 7.8 13.9 0.00 0.00 0.00 51 1012.9
20260508155633 65 209 7.8 16.5 0.00 0.00 0.00 53 1012.9
20260508155134 64 204 8.7 16.5 0.00 0.00 0.00 54 1012.9
20260508154633 64 232 10.4 15.6 0.00 0.00 0.00 52 1012.9
20260508154133 64 244 9.6 15.6 0.00 0.00 0.00 51 1013.0
20260508153633 64 242 8.7 13.0 0.00 0.00 0.00 53 1013.0
20260508153133 63 242 7.8 13.9 0.00 0.00 0.00 54 1013.0
20260508152630 63 219 7.8 13.9 0.00 0.00 0.00 54 1013.1
20260508152131 62 216 8.7 14.8 0.00 0.00 0.00 54 1013.2
20260508151630 62 235 9.6 14.8 0.00 0.00 0.00 51 1013.2
20260508151131 63 242 8.7 14.8 0.00 0.00 0.00 52 1013.3
20260508150631 62 235 7.8 13.0 0.00 0.00 0.00 54 1013.2
20260508150131 62 215 7.0 13.9 0.00 0.00 0.00 55 1013.2
20260508145632 61 231 7.0 13.9 0.00 0.00 0.00 53 1013.3
20260508145130 60 254 7.0 14.8 0.00 0.00 0.00 54 1013.3
20260508144631 61 234 7.8 14.8 0.00 0.00 0.00 54 1013.4
20260508144243 61 257 8.7 18.2 0.00 0.00 0.00 53 1013.6
20260508144135 61 248 7.8 16.5 0.00 0.00 0.00 54 1013.6
20260508144130 61 246 8.7 16.5 0.00 0.00 0.00 52 1013.5
20260508143235 60 231 8.7 18.2 0.00 0.00 0.00 53 1013.6
20260508142131 60 230 7.0 16.5 0.00 0.00 0.00 54 1013.7
20260508141631 60 234 7.0 13.9 0.00 0.00 0.00 55 1013.7
20260508141130 59 230 7.0 16.5 0.00 0.00 0.00 56 1013.7
20260508140635 59 256 7.0 13.0 0.00 0.00 0.00 57 1013.7
20260508140630 59 222 7.0 16.5 0.00 0.00 0.00 53 1013.7
20260508135631 59 229 7.0 13.0 0.00 0.00 0.00 56 1013.8
20260508135136 58 247 7.0 12.2 0.00 0.00 0.00 58 1013.8
20260508135132 58 225 7.0 12.2 0.00 0.00 0.00 57 1013.7
20260508134736 58 229 6.1 11.3 0.00 0.00 0.00 59 1013.7
20260508133635 56 236 5.2 9.6 0.00 0.00 0.00 62 1013.8
20260508133630 57 241 6.1 11.3 0.00 0.00 0.00 60 1013.8
20260508132631 56 225 5.2 11.3 0.00 0.00 0.00 64 1013.7
20260508132131 56 246 6.1 11.3 0.00 0.00 0.00 64 1013.7
20260508131631 55 219 5.2 10.4 0.00 0.00 0.00 64 1013.7
20260508131131 55 226 5.2 10.4 0.00 0.00 0.00 64 1013.6
20260508130631 54 196 4.3 8.7 0.00 0.00 0.00 68 1013.7
20260508130131 53 222 4.3 7.0 0.00 0.00 0.00 68 1013.6
20260508125635 53 211 4.3 7.0 0.00 0.00 0.00 69 1013.7
20260508125134 52 194 4.3 7.0 0.00 0.00 0.00 70 1013.7
20260508125130 52 188 5.2 7.0 0.00 0.00 0.00 70 1013.7
20260508124133 51 218 4.3 7.8 0.00 0.00 0.00 71 1013.7
20260508124129 52 227 4.3 6.1 0.00 0.00 0.00 71 1013.7
20260508123631 51 218 4.3 7.8 0.00 0.00 0.00 71 1013.7
20260508123128 51 212 4.3 7.8 0.00 0.00 0.00 71 1013.7
20260508122632 51 204 4.3 7.0 0.00 0.00 0.00 72 1013.7
20260508122127 50 217 4.3 7.0 0.00 0.00 0.00 73 1013.8
20260508121626 49 202 3.5 7.0 0.00 0.00 0.00 74 1013.8
20260508121127 49 209 3.5 7.0 0.00 0.00 0.00 74 1013.8
20260508120626 49 213 2.6 5.2 0.00 0.00 0.00 75 1013.7
20260508120131 49 216 3.5 7.0 0.00 0.00 0.00 75 1013.5
20260508120127 49 202 2.6 4.3 0.00 0.00 0.00 76 1013.6
20260508115126 48 222 3.5 7.0 0.00 0.00 0.00 75 1013.5
20260508114630 48 215 3.5 5.2 0.00 0.00 0.00 76 1013.5
20260508114126 48 188 2.6 4.3 0.00 0.00 0.00 76 1013.4
20260508113624 48 214 2.6 4.3 0.00 0.00 0.00 76 1013.4
20260508113128 47 217 1.7 3.5 0.00 0.00 0.00 76 1013.4
20260508113124 48 214 1.7 3.5 0.00 0.00 0.00 76 1013.4
20260508112124 47 209 1.7 3.5 0.00 0.00 0.00 75 1013.3
20260508111625 47 220 2.6 4.3 0.00 0.00 0.00 75 1013.3
20260508111124 47 225 3.5 4.3 0.00 0.00 0.00 75 1013.3
20260508110629 47 227 2.6 4.3 0.00 0.00 0.00 76 1013.0
20260508110624 47 232 2.6 5.2 0.00 0.00 0.00 75 1013.2
20260508110124 47 217 2.6 5.2 0.00 0.00 0.00 75 1013.1
20260508105729 47 209 2.6 4.3 0.00 0.00 0.00 76 1013.0
20260508105129 47 209 2.6 4.3 0.00 0.00 0.00 76 1013.0
20260508105123 47 215 2.6 4.3 0.00 0.00 0.00 76 1012.9
20260508104122 47 211 1.7 3.5 0.00 0.00 0.00 76 1013.0
20260508103622 46 218 1.7 2.6 0.00 0.00 0.00 75 1012.9
20260508103122 46 223 1.7 2.6 0.00 0.00 0.00 75 1013.0
20260508102622 46 223 1.7 2.6 0.00 0.00 0.00 75 1013.0
20260508102127 46 240 1.7 2.6 0.00 0.00 0.00 75 1013.1
20260508102122 46 221 1.7 2.6 0.00 0.00 0.00 75 1013.1
20260508101623 46 231 1.7 2.6 0.00 0.00 0.00 75 1013.1
20260508100622 46 229 1.7 3.5 0.00 0.00 0.00 76 1013.0
20260508100119 45 224 1.7 3.5 0.00 0.00 0.00 77 1013.1
20260508095624 45 223 1.7 2.6 0.00 0.00 0.00 76 1013.2
20260508095620 45 224 1.7 2.6 0.00 0.00 0.00 77 1013.1
20260508094620 45 223 1.7 2.6 0.00 0.00 0.00 76 1013.2
20260508094119 45 223 1.7 2.6 0.00 0.00 0.00 76 1013.2
20260508093620 45 227 1.7 2.6 0.00 0.00 0.00 75 1013.2
20260508093120 45 232 0.9 2.6 0.00 0.00 0.00 75 1013.2
20260508092620 45 240 0.0 2.6 0.00 0.00 0.00 75 1013.3
20260508092120 45 225 0.0 0.0 0.00 0.00 0.00 75 1013.1
20260508091620 45 225 0.0 0.0 0.00 0.00 0.00 76 1013.2
20260508091118 45 225 0.0 0.9 0.00 0.00 0.00 76 1013.2
20260508090619 44 225 0.0 0.9 0.00 0.00 0.00 77 1013.3
20260508090117 44 225 0.0 0.9 0.00 0.00 0.00 78 1013.3
20260508085618 44 225 0.0 1.7 0.00 0.00 0.00 78 1013.2
20260508085118 44 225 0.0 1.7 0.00 0.00 0.00 79 1013.3
20260508084617 43 225 0.0 0.9 0.00 0.00 0.00 78 1013.3
20260508084118 43 225 0.0 0.9 0.00 0.00 0.00 77 1013.3
20260508083618 43 225 0.0 0.9 0.00 0.00 0.00 76 1013.3
20260508083117 44 225 0.0 0.9 0.00 0.00 0.00 76 1013.3
20260508082618 44 225 0.0 0.0 0.00 0.00 0.00 75 1013.1
20260508082117 44 225 0.0 0.0 0.00 0.00 0.00 74 1013.2
20260508081619 45 225 0.0 0.0 0.00 0.00 0.00 74 1013.1
20260508081614 45 225 0.0 0.9 0.00 0.00 0.00 73 1013.1
20260508080615 45 225 0.9 1.7 0.00 0.00 0.00 73 1013.1
20260508080114 45 225 0.9 2.6 0.00 0.00 0.00 73 1013.1
20260508075614 45 225 0.0 2.6 0.00 0.00 0.00 74 1013.1
20260508075113 45 237 0.0 0.9 0.00 0.00 0.00 73 1013.0
20260508074615 45 237 0.0 0.0 0.00 0.00 0.00 72 1013.0
20260508074113 45 237 0.0 0.0 0.00 0.00 0.00 72 1013.1
20260508073618 46 237 0.9 1.7 0.00 0.00 0.00 71 1013.0
20260508073614 46 237 0.0 1.7 0.00 0.00 0.00 72 1013.0
20260508072613 46 237 0.9 1.7 0.00 0.00 0.00 71 1013.1
20260508072113 46 237 0.9 1.7 0.00 0.00 0.00 71 1013.2
20260508071614 46 237 0.9 1.7 0.00 0.00 0.00 71 1013.2
20260508071117 46 237 0.0 0.9 0.00 0.00 0.00 71 1013.2
20260508071113 46 237 0.0 1.7 0.00 0.00 0.00 71 1013.2
20260508070114 46 237 0.9 1.7 0.00 0.00 0.00 71 1013.1
20260508065614 46 237 0.9 1.7 0.00 0.00 0.00 71 1013.2
20260508065114 46 232 0.9 2.6 0.00 0.00 0.00 71 1013.4
20260508064613 46 228 1.7 2.6 0.00 0.00 0.00 72 1013.4
20260508064111 46 225 1.7 2.6 0.00 0.00 0.00 72 1013.5
20260508063614 46 225 0.9 1.7 0.00 0.00 0.00 72 1013.6
20260508063609 46 219 0.9 2.6 0.00 0.00 0.00 72 1013.6
20260508062609 46 225 0.9 1.7 0.00 0.00 0.00 72 1013.6
20260508062109 46 225 0.9 1.7 0.00 0.00 0.00 72 1013.7
20260508061609 46 244 0.9 1.7 0.00 0.00 0.00 72 1013.7
20260508061110 46 244 0.0 0.9 0.00 0.00 0.00 72 1013.7
20260508060609 46 244 0.0 0.9 0.00 0.00 0.00 72 1013.7
20260508060113 46 244 0.0 0.9 0.00 0.00 0.00 72 1013.7
20260508060109 46 244 0.0 0.9 0.00 0.00 0.00 72 1013.6
20260508055107 47 244 0.0 1.7 0.00 0.00 0.00 71 1013.7
20260508054608 47 244 0.9 1.7 0.00 0.00 0.00 70 1013.7
20260508054107 47 244 0.9 2.6 0.00 0.00 0.00 69 1013.8
20260508053608 47 244 0.9 2.6 0.00 0.00 0.00 69 1013.7
20260508053108 48 242 0.9 2.6 0.00 0.00 0.00 69 1013.7
20260508052611 48 240 1.7 2.6 0.00 0.00 0.00 68 1013.7
20260508052607 48 243 1.7 2.6 0.00 0.00 0.00 68 1013.7
20260508051607 48 230 1.7 2.6 0.00 0.00 0.00 68 1013.6
20260508051108 48 222 1.7 2.6 0.00 0.00 0.00 68 1013.7
20260508050710 48 225 0.9 2.6 0.00 0.00 0.00 67 1013.7
20260508050609 48 227 1.7 2.6 0.00 0.00 0.00 67 1013.7
20260508050605 48 221 0.9 2.6 0.00 0.00 0.00 70 1013.7
20260508045104 48 220 0.9 2.6 0.00 0.00 0.00 67 1013.7
20260508044603 48 215 0.9 2.6 0.00 0.00 0.00 68 1013.6
20260508044103 48 213 0.9 2.6 0.00 0.00 0.00 68 1013.6
20260508043602 48 215 0.9 1.7 0.00 0.00 0.00 67 1013.6
20260508043103 48 214 0.9 1.7 0.00 0.00 0.00 66 1013.5
20260508042603 49 214 0.9 1.7 0.00 0.00 0.00 66 1013.6
20260508042102 49 215 0.9 1.7 0.00 0.00 0.00 65 1013.5
20260508041603 49 215 0.9 1.7 0.00 0.00 0.00 65 1013.5
20260508041103 48 215 1.7 1.7 0.00 0.00 0.00 66 1013.5
20260508040600 48 212 1.7 2.6 0.00 0.00 0.00 67 1013.5
20260508040101 48 212 1.7 2.6 0.00 0.00 0.00 67 1013.5
20260508035601 48 211 1.7 3.5 0.00 0.00 0.00 67 1013.4
20260508035100 48 219 2.6 3.5 0.00 0.00 0.00 68 1013.5
20260508034601 48 212 2.6 3.5 0.00 0.00 0.00 68 1013.5
20260508034100 48 217 1.7 2.6 0.00 0.00 0.00 67 1013.4
20260508033601 48 217 1.7 1.7 0.00 0.00 0.00 67 1013.5
20260508033100 49 217 1.7 1.7 0.00 0.00 0.00 66 1013.5
20260508032706 49 218 1.7 2.6 0.00 0.00 0.00 62 1013.6
20260508032605 49 218 1.7 2.6 0.00 0.00 0.00 63 1013.5
20260508032601 49 217 1.7 2.6 0.00 0.00 0.00 64 1013.5
20260508031105 49 218 1.7 3.5 0.00 0.00 0.00 64 1013.4
20260508031101 49 218 1.7 3.5 0.00 0.00 0.00 63 1013.5
20260508025601 49 221 2.6 3.5 0.00 0.00 0.00 67 1013.4
20260508025100 49 221 2.6 3.5 0.00 0.00 0.00 67 1013.4
20260508024605 49 226 2.6 3.5 0.00 0.00 0.00 64 1013.4
20260508024601 49 219 2.6 3.5 0.00 0.00 0.00 66 1013.3
20260508023604 49 226 2.6 3.5 0.00 0.00 0.00 64 1013.4
20260508023600 50 227 2.6 3.5 0.00 0.00 0.00 63 1013.4
20260508022606 48 229 1.7 3.5 0.00 0.00 0.00 69 1013.3
20260508022602 49 225 2.6 3.5 0.00 0.00 0.00 66 1013.3
20260508021601 49 237 0.9 1.7 0.00 0.00 0.00 68 1013.2
20260508021100 48 237 0.0 0.9 0.00 0.00 0.00 66 1013.3
20260508020559 48 237 0.0 0.0 0.00 0.00 0.00 67 1013.4
20260508020059 48 237 0.0 0.0 0.00 0.00 0.00 66 1013.4
20260508015604 48 237 0.0 0.0 0.00 0.00 0.00 68 1013.4
20260508015559 48 237 0.0 0.0 0.00 0.00 0.00 67 1013.4
20260508014558 48 237 0.0 0.0 0.00 0.00 0.00 67 1013.4
20260508014058 48 237 0.0 0.0 0.00 0.00 0.00 67 1013.3
20260508013558 48 237 0.0 0.0 0.00 0.00 0.00 67 1013.3
20260508013103 49 237 0.0 0.9 0.00 0.00 0.00 67 1013.3
20260508013058 49 237 0.0 0.9 0.00 0.00 0.00 67 1013.4
20260508012059 49 237 0.0 0.0 0.00 0.00 0.00 66 1013.3
20260508011558 50 237 0.0 0.0 0.00 0.00 0.00 62 1013.4
20260508011057 51 237 0.0 0.0 0.00 0.00 0.00 62 1013.4
20260508010556 51 237 0.0 0.0 0.00 0.00 0.00 61 1013.3
20260508010101 52 237 0.0 0.9 0.00 0.00 0.00 59 1013.2
20260508010057 51 237 0.0 0.0 0.00 0.00 0.00 60 1013.3
20260508005056 53 237 0.0 0.9 0.00 0.00 0.00 57 1013.3
20260508004557 53 237 0.0 0.9 0.00 0.00 0.00 56 1013.2
20260508004057 54 237 0.0 1.7 0.00 0.00 0.00 51 1013.2
20260508003556 54 237 0.9 2.6 0.00 0.00 0.00 52 1013.1
20260508003100 54 237 0.9 2.6 0.00 0.00 0.00 52 1013.0
20260508003055 54 237 0.9 2.6 0.00 0.00 0.00 51 1013.1
20260508002054 55 236 1.7 3.5 0.00 0.00 0.00 52 1013.0
20260508001555 55 230 0.9 3.5 0.00 0.00 0.00 52 1013.0
20260508001058 56 234 2.6 6.1 0.00 0.00 0.00 50 1013.0
20260508001054 55 235 1.7 4.3 0.00 0.00 0.00 50 1013.0
20260508000058 56 235 0.9 2.6 0.00 0.00 0.00 50 1012.9
20260508000055 56 232 1.7 6.1 0.00 0.00 0.00 50 1013.0
20260507235054 56 241 1.7 7.8 0.00 0.00 0.00 49 1013.0
20260507234554 57 245 1.7 7.8 0.00 0.00 0.00 49 1012.9
20260507234055 57 227 0.0 1.7 0.00 0.00 0.00 48 1012.9
20260507233700 57 249 1.7 5.2 0.00 0.00 0.00 49 1012.9
20260507233557 57 257 0.0 3.5 0.00 0.00 0.00 47 1012.9
20260507233553 57 232 0.0 3.5 0.00 0.00 0.00 48 1012.9
20260507232051 57 244 0.9 5.2 0.00 0.00 0.00 46 1012.8
20260507231552 57 225 0.0 2.6 0.00 0.00 0.00 47 1012.8